Location: São Paulo
(23.5507°S, 46.6334°W)
Time: 10:42:47
(UTC-03:00)

Transit 4A - Pass Details

Date: 22 February 2026
Orbit: 864 x 977 km, 66.8° (Epoch: 11 March)

Event Time Altitude Azimuth Distance (km) Brightness Sun altitude
Rises 23:28:19 0° 188° (S) 3,502 11.4 -54.3°
Enters shadow 23:29:03 - 186° (S) 3,248 11.2 -54.3°
Reaches altitude 10° 23:31:13 10° 176° (S) 2,544 - -54.5°
Maximum altitude 23:36:09 28° 119° (ESE) 1,589 - -54.9°
Drops below altitude 10° 23:41:01 10° 61° (ENE) 2,501 - -55.3°
Sets 23:43:49 0° 49° (NE) 3,432 - -55.4°
